[[{"header":{"parameterUnit":"m.s-1","parameterCategory":1,"la1":30.2991,"la2":30.254,"lo1":-89.0895,"lo2":-89.0444,"dy":0.0017,"dx":0.0017,"nx":28,"ny":28,"refTime":"2023-07-25T21:00:00:Z","depth":0,"parameterNumber":2,"parameterNumberName":"U-component_of_WINDS"},"data":[0,0,0,0,0,0,0,0,0,0,0,0,0,0,0,0,0,0,0,0,0,0,0,0,0,0,0,0,0,0,0,0,0,0,0,0,0,0,0,0,0,0,0,0,0,0,0,0,0,0,0,0,0,0,0,0,0,0,-1.2195,-1.2194,0,-1.2062,-1.206,-1.2059,-1.1963,-1.1962,-1.1961,-1.196,-1.1821,-1.1818,-1.1815,0,0,0,0,0,0,0,0,0,0,0,0,0,-1.2365,-1.2362,-1.2195,-1.2194,-1.2192,-1.2062,-1.206,-1.2058,-1.1963,-1.1962,-1.1961,-1.196,-1.1822,-1.1818,-1.1815,0,0,0,0,0,0,0,0,0,0,0,0,0,-1.2267,-1.2361,-1.2196,-1.2129,-1.2121,-1.2062,-1.206,-1.2058,-1.1963,-1.1962,-1.1961,-1.196,-1.1823,-1.1819,-1.1814,-1.181,0,0,-1.1801,-1.1799,0,0,0,0,0,0,0,0,-1.2273,-1.2261,-1.214,-1.2133,-1.2125,-1.2028,-1.2069,-1.1975,-1.1963,-1.2023,-1.196,-1.1959,-1.189,-1.188,-1.1858,-1.1804,-1.1798,-1.18,-1.1797,-1.1796,-1.1794,0,0,0,0,0,0,0,-1.228,-1.2266,-1.2142,-1.2139,-1.2129,-1.2104,-1.2089,-1.205,-1.1965,-1.2018,-1.2011,-1.1996,-1.1886,-1.1862,-1.1854,-1.1795,-1.18,-1.1796,-1.1794,-1.1792,-1.1731,-1.1732,0,0,0,0,0,0,-1.2297,-1.2273,-1.2146,-1.2138,-1.2198,-1.2102,-1.2085,-1.206,-1.1965,-1.195,-1.1997,-1.1992,-1.1871,-1.1859,-1.1849,-1.1838,-1.1796,-1.1791,-1.1789,-1.173,-1.1731,-1.1733,0,0,0,0,0,0,-1.2301,-1.2287,-1.2152,-1.2203,-1.2184,-1.2101,-1.2073,-1.2058,-1.2034,-1.195,-1.1934,-1.1989,-1.1869,-1.1855,-1.1821,-1.1831,-1.1789,-1.1785,-1.1729,-1.1731,-1.1732,-1.1816,0,0,0,0,0,0,-1.2307,-1.2289,-1.2287,-1.2204,-1.2182,-1.2127,-1.2074,-1.2056,-1.2027,-1.2019,-1.1938,-1.1923,-1.1867,-1.1828,-1.1816,-1.1824,-1.1782,-1.1728,-1.173,-1.1732,-1.1812,-1.182,-1.1827,0,0,0,0,0,-1.2313,-1.2315,-1.2288,-1.2273,-1.2178,-1.2128,-1.2115,-1.2052,-1.2029,-1.2026,-1.1971,-1.1926,-1.1832,-1.1825,-1.1811,-1.1818,-1.1727,-1.1729,-1.1731,-1.1808,-1.1819,-1.1827,0,0,0,0,0,0,-1.2401,-1.2303,-1.2271,-1.2247,-1.2197,-1.2112,-1.2106,-1.2065,-1.2019,-1.2014,-1.1936,-1.1918,-1.1892,-1.1851,-1.1845,-1.1809,-1.1774,-1.1774,-1.1837,-1.1846,-1.1854,-1.1864,-1.1778,0,0,0,0,0,-1.2417,-1.2386,-1.2302,-1.2289,-1.2265,-1.2191,-1.2166,-1.2122,-1.2066,-1.2044,-1.1987,-1.1934,-1.1893,-1.1867,-1.1824,-1.1806,-1.1786,-1.1804,-1.1811,-1.1818,-1.1819,-1.1806,-1.1813,-1.1741,-1.1741,-1.1741,0,0,-1.2451,-1.2394,-1.2379,-1.2305,-1.2261,-1.2229,-1.2173,-1.2142,-1.2117,-1.2039,-1.2004,-1.196,-1.1896,-1.187,-1.1855,-1.1835,-1.1835,-1.1821,-1.1827,-1.1824,-1.1809,-1.1816,-1.1823,-1.1742,-1.1742,-1.1742,0,0,-1.2497,-1.245,-1.2434,-1.2392,-1.2326,-1.2276,-1.2273,-1.2194,-1.2163,-1.2126,-1.2067,-1.2036,-1.1967,-1.1923,-1.1892,-1.1923,-1.1879,-1.1911,-1.1951,-1.194,-1.1946,-1.195,-1.1961,-1.1966,-1.1912,-1.1912,-1.1912,0,-1.2547,-1.2497,-1.2431,-1.2404,-1.2373,-1.2302,-1.2285,-1.2246,-1.217,-1.215,-1.2128,-1.204,-1.1991,-1.1954,-1.1962,-1.1939,-1.1932,-1.192,-1.195,-1.1954,-1.1958,-1.1967,-1.1972,-1.1916,-1.1916,-1.1915,-1.1915,0,-1.2562,-1.2529,-1.2524,-1.2453,-1.2422,-1.24,-1.233,-1.2306,-1.2264,-1.2217,-1.2181,-1.212,-1.2064,-1.2052,-1.2011,-1.2009,-1.1999,-1.1965,-1.1928,-1.197,-1.1978,-1.1981,-1.1922,-1.1921,-1.192,-1.1918,0,0,-1.2659,-1.2552,-1.2552,-1.2519,-1.2442,-1.2414,-1.2389,-1.2335,-1.2316,-1.2266,-1.2243,-1.2186,-1.2154,-1.2119,-1.2072,-1.2063,-1.2091,-1.203,-1.2027,-1.2043,-1.2085,-1.2112,-1.2117,-1.2062,-1.2062,-1.2062,-1.2091,0,-1.2692,-1.2644,-1.2584,-1.2556,-1.2525,-1.2457,-1.2435,-1.2385,-1.234,-1.2306,-1.2256,-1.2217,-1.2178,-1.2157,-1.2144,-1.209,-1.2098,-1.2087,-1.2038,-1.2038,-1.2057,-1.2121,-1.2148,-1.2178,-1.2094,-1.2094,-1.2094,0,-1.2725,-1.268,-1.2649,-1.2575,-1.256,-1.2541,-1.2487,-1.2456,-1.2398,-1.2366,-1.2327,-1.2277,-1.2247,-1.2214,-1.217,-1.2164,-1.2141,-1.2111,-1.2111,-1.2104,-1.2069,-1.2116,-1.2186,-1.2191,-1.2098,-1.2098,-1.2098,0,-1.2799,-1.273,-1.2703,-1.2677,-1.259,-1.2578,-1.2541,-1.2482,-1.2454,-1.2406,-1.2387,-1.2337,-1.2309,-1.2271,-1.2209,-1.2191,-1.2172,-1.2134,-1.2144,-1.2146,-1.2143,-1.2144,-1.2211,-1.2128,-1.2128,-1.2128,-1.2128,0,-1.2843,-1.2827,-1.2735,-1.2718,-1.2698,-1.2629,-1.2611,-1.2567,-1.2516,-1.2489,-1.2427,-1.2403,-1.2322,-1.2288,-1.2239,-1.2211,-1.2199,-1.2172,-1.2159,-1.2177,-1.2181,-1.2161,-1.2157,-1.2129,-1.2129,-1.2129,-1.2129,0,-1.2921,-1.286,-1.2826,-1.2746,-1.2726,-1.2715,-1.2647,-1.2628,-1.258,-1.2547,-1.2535,-1.2459,-1.2417,-1.2351,-1.2288,-1.2255,-1.2235,-1.2214,-1.2255,-1.2247,-1.2262,-1.2262,-1.2318,-1.2322,-1.2238,-1.2238,-1.2239,0,-1.2954,-1.294,-1.286,-1.2838,-1.2804,-1.2769,-1.2741,-1.2672,-1.2645,-1.2578,-1.2567,-1.252,-1.2478,-1.2413,-1.2352,-1.2304,-1.2281,-1.2304,-1.2273,-1.2292,-1.2281,-1.2283,-1.2282,-1.2311,-1.2313,-1.2314,-1.2315,0,-1.3017,-1.2988,-1.2949,-1.2901,-1.2869,-1.2827,-1.2781,-1.2767,-1.2688,-1.2661,-1.2617,-1.2585,-1.2522,-1.2476,-1.2419,-1.238,-1.2334,-1.2325,-1.2325,-1.2344,-1.2368,-1.2355,-1.2275,-1.2324,-1.2323,-1.2322,-1.2322,-1.2321,-1.3074,-1.3059,-1.3,-1.296,-1.2919,-1.2879,-1.2857,-1.2807,-1.277,-1.2714,-1.2675,-1.2634,-1.2576,-1.2496,-1.2459,-1.2425,-1.2405,-1.2405,-1.2405,-1.2406,-1.2413,-1.2374,-1.2415,-1.2414,-1.2414,-1.2414,-1.2413,0,-1.3134,-1.3094,-1.3057,-1.2997,-1.2965,-1.2926,-1.2874,-1.285,-1.2815,-1.2765,-1.2726,-1.2676,-1.2632,-1.2568,-1.2518,-1.2503,-1.2481,-1.2492,-1.2493,-1.2484,-1.2434,-1.2439,-1.2511,-1.2511,-1.2511,-1.2511,-1.2511,-1.2511,-1.3162,-1.3135,-1.3099,-1.3051,-1.3009,-1.297,-1.2943,-1.2906,-1.2866,-1.2813,-1.2776,-1.2735,-1.2679,-1.2625,-1.2582,-1.2564,-1.2549,-1.2567,-1.2543,-1.2497,-1.2488,-1.2479,-1.2484,-1.2564,-1.2564,-1.2596,-1.2597,-1.2597]},{"header":{"parameterUnit":"m.s-1","parameterCategory":1,"la1":30.2991,"la2":30.254,"lo1":-89.0895,"lo2":-89.0444,"dy":0.0017,"dx":0.0017,"nx":28,"ny":28,"refTime":"2023-07-25T21:00:00:Z","depth":0,"parameterNumber":3,"parameterNumberName":"V-component_of_WINDS"},"data":[0,0,0,0,0,0,0,0,0,0,0,0,0,0,0,0,0,0,0,0,0,0,0,0,0,0,0,0,0,0,0,0,0,0,0,0,0,0,0,0,0,0,0,0,0,0,0,0,0,0,0,0,0,0,0,0,0,0,0.9519,0.9519,0,0.9525,0.9525,0.9525,0.9548,0.9548,0.9549,0.9549,0.9555,0.9555,0.9554,0,0,0,0,0,0,0,0,0,0,0,0,0,0.9526,0.9526,0.9519,0.9519,0.9519,0.9525,0.9525,0.9525,0.9547,0.9548,0.9549,0.9549,0.9555,0.9555,0.9554,0,0,0,0,0,0,0,0,0,0,0,0,0,0.9526,0.9526,0.9519,0.9531,0.9532,0.9525,0.9525,0.9525,0.9547,0.9548,0.9549,0.955,0.9555,0.9555,0.9554,0.9536,0,0,0.9553,0.9553,0,0,0,0,0,0,0,0,0.9526,0.9526,0.9529,0.953,0.9531,0.9536,0.953,0.9528,0.9547,0.9541,0.9549,0.955,0.9548,0.9548,0.9548,0.9536,0.9536,0.9553,0.9553,0.9552,0.9552,0,0,0,0,0,0,0,0.9526,0.9526,0.9521,0.9529,0.953,0.9536,0.9537,0.9529,0.954,0.9542,0.9544,0.9544,0.9549,0.9548,0.9548,0.9536,0.9553,0.9552,0.9552,0.9552,0.9508,0.9507,0,0,0,0,0,0,0.9525,0.9526,0.9521,0.9521,0.9531,0.9535,0.9536,0.9534,0.954,0.9542,0.9543,0.9545,0.9549,0.9549,0.9548,0.9525,0.9552,0.9552,0.9552,0.9509,0.9508,0.9507,0,0,0,0,0,0,0.9525,0.9524,0.9521,0.9524,0.9524,0.9534,0.9531,0.9533,0.9533,0.9542,0.9544,0.9541,0.9549,0.9549,0.9538,0.9526,0.9552,0.9551,0.951,0.9509,0.9507,0.948,0,0,0,0,0,0,0.9525,0.9524,0.9517,0.9524,0.9524,0.951,0.9531,0.9533,0.9532,0.9534,0.9539,0.9541,0.955,0.9539,0.9538,0.9526,0.9551,0.9511,0.9509,0.9508,0.9482,0.9478,0.9475,0,0,0,0,0,0.9525,0.9509,0.9517,0.9516,0.9515,0.951,0.951,0.952,0.9531,0.9524,0.9529,0.9541,0.9528,0.9538,0.9537,0.9524,0.9512,0.951,0.9508,0.9484,0.9479,0.9475,0,0,0,0,0,0,0.9501,0.9511,0.9518,0.9505,0.9506,0.9514,0.9505,0.9515,0.9513,0.9515,0.9529,0.953,0.9516,0.952,0.953,0.9506,0.9522,0.9519,0.9504,0.9499,0.9495,0.9494,0.955,0,0,0,0,0,0.9494,0.9489,0.9498,0.9485,0.9485,0.9495,0.9493,0.9501,0.9503,0.9504,0.9508,0.951,0.9506,0.9503,0.95,0.9483,0.9484,0.9474,0.947,0.9467,0.9464,0.9454,0.9449,0.95,0.95,0.95,0,0,0.948,0.9485,0.9481,0.948,0.9482,0.9476,0.9495,0.9488,0.9483,0.9503,0.9492,0.9496,0.9498,0.9484,0.9478,0.9486,0.9451,0.9465,0.9462,0.9461,0.9452,0.9447,0.9442,0.9499,0.9499,0.95,0,0,0.945,0.9454,0.9443,0.9444,0.9447,0.9454,0.9451,0.9457,0.946,0.945,0.9463,0.9458,0.9452,0.9452,0.9452,0.9422,0.9432,0.9421,0.94,0.939,0.9386,0.9382,0.9369,0.9365,0.9418,0.9418,0.9418,0,0.9432,0.9423,0.9436,0.9427,0.9426,0.9443,0.9431,0.9432,0.9434,0.9432,0.9442,0.9433,0.9436,0.9421,0.9414,0.9414,0.941,0.9419,0.9385,0.9382,0.9379,0.9367,0.9362,0.9417,0.9417,0.9417,0.9417,0,0.94,0.9394,0.9384,0.9385,0.9383,0.9373,0.9383,0.9379,0.9387,0.9393,0.9382,0.9386,0.9383,0.9381,0.9389,0.9367,0.9372,0.9383,0.9399,0.9372,0.9361,0.9357,0.9415,0.9415,0.9416,0.9416,0,0,0.9354,0.9362,0.9358,0.9357,0.9362,0.9357,0.9348,0.9345,0.9341,0.9342,0.9333,0.9327,0.9337,0.9337,0.9345,0.9336,0.931,0.9349,0.9349,0.9339,0.9283,0.9273,0.9268,0.9317,0.9317,0.9316,0.9282,0,0.9324,0.9308,0.9318,0.93,0.9293,0.931,0.9301,0.9303,0.9308,0.9303,0.9308,0.9303,0.9318,0.9317,0.931,0.9315,0.9298,0.9318,0.9308,0.9308,0.9305,0.9262,0.9251,0.9219,0.9278,0.9278,0.9277,0,0.9287,0.9285,0.9266,0.927,0.9268,0.926,0.9258,0.9253,0.9255,0.9259,0.9258,0.9269,0.9259,0.9276,0.9262,0.9275,0.9272,0.9274,0.9273,0.9271,0.9289,0.9257,0.921,0.9204,0.9271,0.9271,0.9272,0,0.9253,0.9246,0.9233,0.9233,0.9238,0.9232,0.9234,0.9237,0.9234,0.9232,0.923,0.9228,0.9226,0.9223,0.9233,0.9245,0.9217,0.9235,0.9219,0.9218,0.921,0.921,0.916,0.9212,0.9212,0.9212,0.9212,0,0.9217,0.9204,0.9218,0.9209,0.9195,0.9208,0.9193,0.9197,0.9199,0.9191,0.9206,0.9199,0.9213,0.9206,0.9214,0.92,0.92,0.9202,0.9204,0.9199,0.9199,0.9196,0.9197,0.9211,0.9211,0.9212,0.9212,0,0.9175,0.9184,0.9171,0.9177,0.9178,0.9167,0.9172,0.9165,0.9171,0.9161,0.9159,0.9169,0.9162,0.9172,0.9167,0.9172,0.9152,0.9158,0.9151,0.9152,0.9134,0.9134,0.9078,0.907,0.913,0.9129,0.9129,0,0.915,0.9141,0.9145,0.9141,0.9142,0.9136,0.9133,0.9145,0.9141,0.9142,0.9134,0.9129,0.9125,0.9114,0.912,0.9116,0.912,0.9101,0.912,0.9115,0.9117,0.9117,0.9115,0.9096,0.9096,0.9095,0.9095,0,0.9105,0.9109,0.9105,0.9101,0.9097,0.9095,0.9094,0.909,0.9103,0.9098,0.9091,0.9088,0.9082,0.9076,0.9073,0.9075,0.9086,0.9089,0.9084,0.9079,0.9074,0.9074,0.9138,0.909,0.909,0.909,0.9091,0.9091,0.9069,0.906,0.9062,0.9056,0.9057,0.9055,0.9048,0.9053,0.9047,0.9043,0.9051,0.9042,0.9043,0.9041,0.9041,0.9034,0.9042,0.9036,0.9035,0.9032,0.9028,0.9077,0.9034,0.9034,0.9034,0.9034,0.9035,0,0.9022,0.9024,0.9018,0.9016,0.9011,0.9023,0.9022,0.9017,0.9008,0.9009,0.9005,0.8996,0.899,0.8996,0.8991,0.8984,0.8989,0.8982,0.8982,0.8981,0.9022,0.9025,0.8978,0.8978,0.8978,0.8978,0.8978,0.8978,0.8997,0.8982,0.8987,0.8972,0.8975,0.8965,0.8964,0.8962,0.8962,0.8952,0.8947,0.8951,0.8953,0.8949,0.8944,0.8945,0.8942,0.8933,0.8936,0.8973,0.8979,0.8984,0.8987,0.8933,0.8932,0.8896,0.8895,0.8895]}]]